Flag for Reunion (French) Weather past 2 weeks in Saint-Pierre, Reunion (French)

Now
81 °F

Partly sunny.


Feels Like: 83 °F
Forecast: 75 / 83 °F
Wind: 7 mph from Southwest

Location: Saint Airport-Pierre

Current Time: Oct 21, 2014 at 2:59:15 PM

Latest Report: Oct 21, 2014 at 1:30 PM


Visibility: N/A

Pressure: 29.98 "Hg

Humidity: 66%

Dew point: 68 °F

Location of Saint-PierreLocation

Historic Weather in Saint-Pierre — Graph

°F

Saint-Pierre temperature yesterday

Maximum temperature yesterday: 82 °F (at 9:30 AM)
Minimum temperature yesterday: 73 °F (at 8:30 PM)
Average temperature yesterday: 79 °F

Past Weeks' High & Low Weather Summary

 TemperatureHumidityPressure
High84 °F (Oct 10, 12:00 PM)88% (Oct 18, 1:00 AM)30.18 "Hg (Oct 18, 1:00 AM)
Low66 °F (Oct 13, 4:30 AM)45% (Oct 13, 8:00 AM)29.89 "Hg (Oct 15, 5:00 PM)
Average77 °F67%30.04 "Hg
* Reported Oct 6 1:00 PM — Oct 21 1:30 PM, Saint-Pierre, Weather by CustomWeather, © 2014

Note: Actual official high and low records may vary slightly from our data, if they occured in-between our weather recording intervals... More about our weather records

Advertising

Saint-Pierre weather history for previous 24 hours

 ConditionsComfort  
Time TempWeatherWind HumidityBarometerVisibility
1:30 PM
Oct 21
81 °FPartly sunny.7 mph66%29.98 "HgN/A
1:00 PM82 °FOvercast.7 mph62%30.01 "HgN/A
12:30 PM81 °FOvercast.6 mph66%30.01 "HgN/A
12:00 PM81 °FOvercast.8 mph70%30.04 "HgN/A
11:30 AM82 °FPassing clouds.10 mph62%30.04 "HgN/A
11:00 AM82 °FWarm.9 mph62%30.04 "HgN/A
10:30 AM82 °FWarm.10 mph62%30.04 "HgN/A
10:00 AM82 °FWarm.7 mph62%30.04 "HgN/A
9:30 AM81 °FWarm.8 mph66%30.04 "HgN/A
9:00 AM81 °FWarm.6 mph62%30.04 "HgN/A
8:30 AM79 °FWarm.3 mph65%30.04 "HgN/A
8:00 AM81 °FWarm.3 mph62%30.04 "HgN/A
7:30 AM79 °FWarm.8 mph48%30.04 "HgN/A
7:00 AM75 °FMild.8 mph57%30.01 "HgN/A
6:30 AM72 °FPassing clouds.8 mph65%30.01 "HgN/A
6:00 AM72 °FScattered clouds.8 mph65%30.01 "HgN/A
5:30 AM72 °FPassing clouds.8 mph65%30.01 "HgN/A
5:00 AM70 °FPassing clouds.8 mph69%29.98 "HgN/A
4:30 AM70 °FPassing clouds.7 mph69%29.98 "HgN/A
4:00 AM70 °FMild.8 mph69%29.98 "HgN/A
3:30 AM70 °FMild.8 mph69%29.98 "HgN/A
3:00 AM70 °FMild.7 mph69%29.98 "HgN/A
2:30 AM72 °FMild.8 mph73%29.98 "HgN/A
2:00 AM72 °FMild.8 mph73%29.98 "HgN/A
1:30 AM72 °FMild.6 mph69%29.98 "HgN/A
1:00 AM72 °FMild.5 mph73%29.98 "HgN/A
12:30 AM72 °FMild.5 mph73%30.01 "HgN/A
12:00 AM73 °FMild.6 mph69%30.01 "HgN/A
11:30 PM
Oct 20
73 °FPassing clouds.6 mph74%30.04 "HgN/A
11:00 PM73 °FMild.6 mph74%30.04 "HgN/A
10:30 PM73 °FMild.7 mph74%30.04 "HgN/A
10:00 PM73 °FMild.7 mph74%30.04 "HgN/A
9:30 PM73 °FMild.6 mph74%30.01 "HgN/A
9:00 PM73 °FMild.5 mph74%30.01 "HgN/A
8:30 PM73 °FMild.5 mph69%30.01 "HgN/A
8:00 PM75 °FMild.6 mph69%29.98 "HgN/A
7:30 PM75 °FMild.5 mph69%29.98 "HgN/A
7:00 PM77 °FPassing clouds.2 mph69%29.98 "HgN/A
6:30 PM77 °FPassing clouds.2 mph69%29.98 "HgN/A
6:00 PM79 °FPassing clouds.6 mph65%29.98 "HgN/A
5:30 PM79 °FWarm.10 mph70%29.98 "HgN/A
5:00 PM81 °FPassing clouds.13 mph66%29.95 "HgN/A
4:30 PM82 °FOvercast.15 mph62%29.95 "HgN/A
4:00 PM82 °FMostly cloudy.15 mph62%29.95 "HgN/A
3:30 PM81 °FOvercast.14 mph70%29.95 "HgN/A
3:00 PM81 °FOvercast.14 mph66%29.95 "HgN/A
2:30 PM81 °FPartly sunny.13 mph70%29.95 "HgN/A
2:00 PM82 °FPartly sunny.13 mph62%29.95 "HgN/A
Weather by CustomWeather, © 2014

See weather overviewHow to use our weather pages